Index of /20260428/WXO-DD/model_rdps/10km/06/006
Name Last modified Size Description
Parent Directory -
20260428T06Z_MSC_RDPS_AbsoluteVorticity_IsbL-0250_RLatLon0.09_PT006H.grib2 2026-04-28 08:40 626K
20260428T06Z_MSC_RDPS_AbsoluteVorticity_IsbL-0500_RLatLon0.09_PT006H.grib2 2026-04-28 08:40 570K
20260428T06Z_MSC_RDPS_AbsoluteVorticity_IsbL-0700_RLatLon0.09_PT006H.grib2 2026-04-28 08:40 617K
20260428T06Z_MSC_RDPS_AbsoluteVorticity_IsbL-0850_RLatLon0.09_PT006H.grib2 2026-04-28 08:40 776K
20260428T06Z_MSC_RDPS_AirTemp_AGL-120m_RLatLon0.09_PT006H.grib2 2026-04-28 08:40 380K
20260428T06Z_MSC_RDPS_AirTemp_AGL-2m_RLatLon0.09_PT006H.grib2 2026-04-28 08:40 638K
20260428T06Z_MSC_RDPS_AirTemp_AGL-40m_RLatLon0.09_PT006H.grib2 2026-04-28 08:40 398K
20260428T06Z_MSC_RDPS_AirTemp_AGL-80m_RLatLon0.09_PT006H.grib2 2026-04-28 08:40 388K
20260428T06Z_MSC_RDPS_AirTemp_IsbL-0001_RLatLon0.09_PT006H.grib2 2026-04-28 08:40 262K
20260428T06Z_MSC_RDPS_AirTemp_IsbL-0005_RLatLon0.09_PT006H.grib2 2026-04-28 08:40 288K
20260428T06Z_MSC_RDPS_AirTemp_IsbL-0010_RLatLon0.09_PT006H.grib2 2026-04-28 08:40 297K
20260428T06Z_MSC_RDPS_AirTemp_IsbL-0020_RLatLon0.09_PT006H.grib2 2026-04-28 08:40 311K
20260428T06Z_MSC_RDPS_AirTemp_IsbL-0030_RLatLon0.09_PT006H.grib2 2026-04-28 08:40 328K
20260428T06Z_MSC_RDPS_AirTemp_IsbL-0050_RLatLon0.09_PT006H.grib2 2026-04-28 08:40 309K
20260428T06Z_MSC_RDPS_AirTemp_IsbL-0100_RLatLon0.09_PT006H.grib2 2026-04-28 08:40 425K
20260428T06Z_MSC_RDPS_AirTemp_IsbL-0150_RLatLon0.09_PT006H.grib2 2026-04-28 08:40 430K
20260428T06Z_MSC_RDPS_AirTemp_IsbL-0175_RLatLon0.09_PT006H.grib2 2026-04-28 08:40 422K
20260428T06Z_MSC_RDPS_AirTemp_IsbL-0200_RLatLon0.09_PT006H.grib2 2026-04-28 08:40 422K
20260428T06Z_MSC_RDPS_AirTemp_IsbL-0225_RLatLon0.09_PT006H.grib2 2026-04-28 08:40 424K
20260428T06Z_MSC_RDPS_AirTemp_IsbL-0250_RLatLon0.09_PT006H.grib2 2026-04-28 08:40 431K
20260428T06Z_MSC_RDPS_AirTemp_IsbL-0275_RLatLon0.09_PT006H.grib2 2026-04-28 08:40 412K
20260428T06Z_MSC_RDPS_AirTemp_IsbL-0300_RLatLon0.09_PT006H.grib2 2026-04-28 08:40 417K
20260428T06Z_MSC_RDPS_AirTemp_IsbL-0350_RLatLon0.09_PT006H.grib2 2026-04-28 08:40 429K
20260428T06Z_MSC_RDPS_AirTemp_IsbL-0400_RLatLon0.09_PT006H.grib2 2026-04-28 08:40 430K
20260428T06Z_MSC_RDPS_AirTemp_IsbL-0450_RLatLon0.09_PT006H.grib2 2026-04-28 08:40 437K
20260428T06Z_MSC_RDPS_AirTemp_IsbL-0500_RLatLon0.09_PT006H.grib2 2026-04-28 08:40 413K
20260428T06Z_MSC_RDPS_AirTemp_IsbL-0550_RLatLon0.09_PT006H.grib2 2026-04-28 08:40 429K
20260428T06Z_MSC_RDPS_AirTemp_IsbL-0600_RLatLon0.09_PT006H.grib2 2026-04-28 08:40 445K
20260428T06Z_MSC_RDPS_AirTemp_IsbL-0650_RLatLon0.09_PT006H.grib2 2026-04-28 08:40 457K
20260428T06Z_MSC_RDPS_AirTemp_IsbL-0700_RLatLon0.09_PT006H.grib2 2026-04-28 08:40 481K
20260428T06Z_MSC_RDPS_AirTemp_IsbL-0750_RLatLon0.09_PT006H.grib2 2026-04-28 08:40 408K
20260428T06Z_MSC_RDPS_AirTemp_IsbL-0800_RLatLon0.09_PT006H.grib2 2026-04-28 08:40 454K
20260428T06Z_MSC_RDPS_AirTemp_IsbL-0850_RLatLon0.09_PT006H.grib2 2026-04-28 08:40 504K
20260428T06Z_MSC_RDPS_AirTemp_IsbL-0875_RLatLon0.09_PT006H.grib2 2026-04-28 08:40 522K
20260428T06Z_MSC_RDPS_AirTemp_IsbL-0900_RLatLon0.09_PT006H.grib2 2026-04-28 08:40 525K
20260428T06Z_MSC_RDPS_AirTemp_IsbL-0925_RLatLon0.09_PT006H.grib2 2026-04-28 08:40 522K
20260428T06Z_MSC_RDPS_AirTemp_IsbL-0950_RLatLon0.09_PT006H.grib2 2026-04-28 08:40 526K
20260428T06Z_MSC_RDPS_AirTemp_IsbL-0970_RLatLon0.09_PT006H.grib2 2026-04-28 08:40 522K
20260428T06Z_MSC_RDPS_AirTemp_IsbL-0985_RLatLon0.09_PT006H.grib2 2026-04-28 08:40 510K
20260428T06Z_MSC_RDPS_AirTemp_IsbL-1000_RLatLon0.09_PT006H.grib2 2026-04-28 08:40 494K
20260428T06Z_MSC_RDPS_AirTemp_IsbL-1015_RLatLon0.09_PT006H.grib2 2026-04-28 08:40 493K
20260428T06Z_MSC_RDPS_Albedo_Sfc_RLatLon0.09_PT006H.grib2 2026-04-28 08:40 157K
20260428T06Z_MSC_RDPS_CAPE_Sfc_RLatLon0.09_PT006H.grib2 2026-04-28 08:40 1.6M
20260428T06Z_MSC_RDPS_CIN_Sfc_RLatLon0.09_PT006H.grib2 2026-04-28 08:40 1.1M
20260428T06Z_MSC_RDPS_CloudWater_EAtm_RLatLon0.09_PT006H.grib2 2026-04-28 08:40 216K
20260428T06Z_MSC_RDPS_ConvectivePrecip-Accum_Sfc_RLatLon0.09_PT006H.grib2 2026-04-28 08:40 512K
20260428T06Z_MSC_RDPS_DewPointDepression_AGL-2m_RLatLon0.09_PT006H.grib2 2026-04-28 08:40 393K
20260428T06Z_MSC_RDPS_DewPointDepression_IsbL-0001_RLatLon0.09_PT006H.grib2 2026-04-28 08:40 193
20260428T06Z_MSC_RDPS_DewPointDepression_IsbL-0005_RLatLon0.09_PT006H.grib2 2026-04-28 08:40 193
20260428T06Z_MSC_RDPS_DewPointDepression_IsbL-0010_RLatLon0.09_PT006H.grib2 2026-04-28 08:40 193
20260428T06Z_MSC_RDPS_DewPointDepression_IsbL-0020_RLatLon0.09_PT006H.grib2 2026-04-28 08:40 193
20260428T06Z_MSC_RDPS_DewPointDepression_IsbL-0030_RLatLon0.09_PT006H.grib2 2026-04-28 08:40 635
20260428T06Z_MSC_RDPS_DewPointDepression_IsbL-0050_RLatLon0.09_PT006H.grib2 2026-04-28 08:40 118K
20260428T06Z_MSC_RDPS_DewPointDepression_IsbL-0100_RLatLon0.09_PT006H.grib2 2026-04-28 08:40 129K
20260428T06Z_MSC_RDPS_DewPointDepression_IsbL-0150_RLatLon0.09_PT006H.grib2 2026-04-28 08:40 154K
20260428T06Z_MSC_RDPS_DewPointDepression_IsbL-0175_RLatLon0.09_PT006H.grib2 2026-04-28 08:40 185K
20260428T06Z_MSC_RDPS_DewPointDepression_IsbL-0200_RLatLon0.09_PT006H.grib2 2026-04-28 08:40 221K
20260428T06Z_MSC_RDPS_DewPointDepression_IsbL-0225_RLatLon0.09_PT006H.grib2 2026-04-28 08:40 265K
20260428T06Z_MSC_RDPS_DewPointDepression_IsbL-0250_RLatLon0.09_PT006H.grib2 2026-04-28 08:40 303K
20260428T06Z_MSC_RDPS_DewPointDepression_IsbL-0275_RLatLon0.09_PT006H.grib2 2026-04-28 08:40 308K
20260428T06Z_MSC_RDPS_DewPointDepression_IsbL-0300_RLatLon0.09_PT006H.grib2 2026-04-28 08:40 326K
20260428T06Z_MSC_RDPS_DewPointDepression_IsbL-0350_RLatLon0.09_PT006H.grib2 2026-04-28 08:40 333K
20260428T06Z_MSC_RDPS_DewPointDepression_IsbL-0400_RLatLon0.09_PT006H.grib2 2026-04-28 08:40 348K
20260428T06Z_MSC_RDPS_DewPointDepression_IsbL-0450_RLatLon0.09_PT006H.grib2 2026-04-28 08:40 353K
20260428T06Z_MSC_RDPS_DewPointDepression_IsbL-0500_RLatLon0.09_PT006H.grib2 2026-04-28 08:40 355K
20260428T06Z_MSC_RDPS_DewPointDepression_IsbL-0550_RLatLon0.09_PT006H.grib2 2026-04-28 08:40 363K
20260428T06Z_MSC_RDPS_DewPointDepression_IsbL-0600_RLatLon0.09_PT006H.grib2 2026-04-28 08:40 375K
20260428T06Z_MSC_RDPS_DewPointDepression_IsbL-0650_RLatLon0.09_PT006H.grib2 2026-04-28 08:40 379K
20260428T06Z_MSC_RDPS_DewPointDepression_IsbL-0700_RLatLon0.09_PT006H.grib2 2026-04-28 08:40 387K
20260428T06Z_MSC_RDPS_DewPointDepression_IsbL-0750_RLatLon0.09_PT006H.grib2 2026-04-28 08:40 409K
20260428T06Z_MSC_RDPS_DewPointDepression_IsbL-0800_RLatLon0.09_PT006H.grib2 2026-04-28 08:40 441K
20260428T06Z_MSC_RDPS_DewPointDepression_IsbL-0850_RLatLon0.09_PT006H.grib2 2026-04-28 08:40 468K
20260428T06Z_MSC_RDPS_DewPointDepression_IsbL-0875_RLatLon0.09_PT006H.grib2 2026-04-28 08:40 470K
20260428T06Z_MSC_RDPS_DewPointDepression_IsbL-0900_RLatLon0.09_PT006H.grib2 2026-04-28 08:40 457K
20260428T06Z_MSC_RDPS_DewPointDepression_IsbL-0925_RLatLon0.09_PT006H.grib2 2026-04-28 08:40 447K
20260428T06Z_MSC_RDPS_DewPointDepression_IsbL-0950_RLatLon0.09_PT006H.grib2 2026-04-28 08:40 441K
20260428T06Z_MSC_RDPS_DewPointDepression_IsbL-0970_RLatLon0.09_PT006H.grib2 2026-04-28 08:40 436K
20260428T06Z_MSC_RDPS_DewPointDepression_IsbL-0985_RLatLon0.09_PT006H.grib2 2026-04-28 08:40 431K
20260428T06Z_MSC_RDPS_DewPointDepression_IsbL-1000_RLatLon0.09_PT006H.grib2 2026-04-28 08:40 427K
20260428T06Z_MSC_RDPS_DewPointDepression_IsbL-1015_RLatLon0.09_PT006H.grib2 2026-04-28 08:40 421K
20260428T06Z_MSC_RDPS_DewPoint_AGL-2m_RLatLon0.09_PT006H.grib2 2026-04-28 08:40 313K
20260428T06Z_MSC_RDPS_DownwardLongwaveRadiationFlux-Accum_Sfc_RLatLon0.09_PT006H.grib2 2026-04-28 08:40 505K
20260428T06Z_MSC_RDPS_DownwardShortwaveRadiationFlux-Accum_NTAtm_RLatLon0.09_PT006H.grib2 2026-04-28 08:40 71K
20260428T06Z_MSC_RDPS_DownwardShortwaveRadiationFlux-Accum_Sfc_RLatLon0.09_PT006H.grib2 2026-04-28 08:40 290K
20260428T06Z_MSC_RDPS_FreezingRain-Accum1h_Sfc_RLatLon0.09_PT006H.grib2 2026-04-28 08:40 40K
20260428T06Z_MSC_RDPS_FreezingRain-Accum3h_Sfc_RLatLon0.09_PT006H.grib2 2026-04-28 08:40 48K
20260428T06Z_MSC_RDPS_FreezingRain-Accum6h_Sfc_RLatLon0.09_PT006H.grib2 2026-04-28 08:40 65K
20260428T06Z_MSC_RDPS_FreezingRain-Accum_Sfc_RLatLon0.09_PT006H.grib2 2026-04-28 08:40 74K
20260428T06Z_MSC_RDPS_GeopotentialHeight_IsbL-0001_RLatLon0.09_PT006H.grib2 2026-04-28 08:40 243K
20260428T06Z_MSC_RDPS_GeopotentialHeight_IsbL-0005_RLatLon0.09_PT006H.grib2 2026-04-28 08:40 341K
20260428T06Z_MSC_RDPS_GeopotentialHeight_IsbL-0010_RLatLon0.09_PT006H.grib2 2026-04-28 08:40 309K
20260428T06Z_MSC_RDPS_GeopotentialHeight_IsbL-0020_RLatLon0.09_PT006H.grib2 2026-04-28 08:40 308K
20260428T06Z_MSC_RDPS_GeopotentialHeight_IsbL-0030_RLatLon0.09_PT006H.grib2 2026-04-28 08:40 310K
20260428T06Z_MSC_RDPS_GeopotentialHeight_IsbL-0050_RLatLon0.09_PT006H.grib2 2026-04-28 08:40 311K
20260428T06Z_MSC_RDPS_GeopotentialHeight_IsbL-0100_RLatLon0.09_PT006H.grib2 2026-04-28 08:40 289K
20260428T06Z_MSC_RDPS_GeopotentialHeight_IsbL-0150_RLatLon0.09_PT006H.grib2 2026-04-28 08:40 232K
20260428T06Z_MSC_RDPS_GeopotentialHeight_IsbL-0175_RLatLon0.09_PT006H.grib2 2026-04-28 08:40 266K
20260428T06Z_MSC_RDPS_GeopotentialHeight_IsbL-0200_RLatLon0.09_PT006H.grib2 2026-04-28 08:40 269K
20260428T06Z_MSC_RDPS_GeopotentialHeight_IsbL-0225_RLatLon0.09_PT006H.grib2 2026-04-28 08:40 270K
20260428T06Z_MSC_RDPS_GeopotentialHeight_IsbL-0250_RLatLon0.09_PT006H.grib2 2026-04-28 08:40 270K
20260428T06Z_MSC_RDPS_GeopotentialHeight_IsbL-0275_RLatLon0.09_PT006H.grib2 2026-04-28 08:40 269K
20260428T06Z_MSC_RDPS_GeopotentialHeight_IsbL-0300_RLatLon0.09_PT006H.grib2 2026-04-28 08:40 269K
20260428T06Z_MSC_RDPS_GeopotentialHeight_IsbL-0350_RLatLon0.09_PT006H.grib2 2026-04-28 08:40 234K
20260428T06Z_MSC_RDPS_GeopotentialHeight_IsbL-0400_RLatLon0.09_PT006H.grib2 2026-04-28 08:40 231K
20260428T06Z_MSC_RDPS_GeopotentialHeight_IsbL-0450_RLatLon0.09_PT006H.grib2 2026-04-28 08:40 300K
20260428T06Z_MSC_RDPS_GeopotentialHeight_IsbL-0500_RLatLon0.09_PT006H.grib2 2026-04-28 08:40 294K
20260428T06Z_MSC_RDPS_GeopotentialHeight_IsbL-0550_RLatLon0.09_PT006H.grib2 2026-04-28 08:40 290K
20260428T06Z_MSC_RDPS_GeopotentialHeight_IsbL-0600_RLatLon0.09_PT006H.grib2 2026-04-28 08:40 285K
20260428T06Z_MSC_RDPS_GeopotentialHeight_IsbL-0650_RLatLon0.09_PT006H.grib2 2026-04-28 08:40 284K
20260428T06Z_MSC_RDPS_GeopotentialHeight_IsbL-0700_RLatLon0.09_PT006H.grib2 2026-04-28 08:40 254K
20260428T06Z_MSC_RDPS_GeopotentialHeight_IsbL-0750_RLatLon0.09_PT006H.grib2 2026-04-28 08:40 255K
20260428T06Z_MSC_RDPS_GeopotentialHeight_IsbL-0800_RLatLon0.09_PT006H.grib2 2026-04-28 08:40 345K
20260428T06Z_MSC_RDPS_GeopotentialHeight_IsbL-0850_RLatLon0.09_PT006H.grib2 2026-04-28 08:40 356K
20260428T06Z_MSC_RDPS_GeopotentialHeight_IsbL-0875_RLatLon0.09_PT006H.grib2 2026-04-28 08:40 360K
20260428T06Z_MSC_RDPS_GeopotentialHeight_IsbL-0900_RLatLon0.09_PT006H.grib2 2026-04-28 08:40 363K
20260428T06Z_MSC_RDPS_GeopotentialHeight_IsbL-0925_RLatLon0.09_PT006H.grib2 2026-04-28 08:40 368K
20260428T06Z_MSC_RDPS_GeopotentialHeight_IsbL-0950_RLatLon0.09_PT006H.grib2 2026-04-28 08:40 370K
20260428T06Z_MSC_RDPS_GeopotentialHeight_IsbL-0970_RLatLon0.09_PT006H.grib2 2026-04-28 08:40 377K
20260428T06Z_MSC_RDPS_GeopotentialHeight_IsbL-0985_RLatLon0.09_PT006H.grib2 2026-04-28 08:40 385K
20260428T06Z_MSC_RDPS_GeopotentialHeight_IsbL-1000_RLatLon0.09_PT006H.grib2 2026-04-28 08:40 397K
20260428T06Z_MSC_RDPS_GeopotentialHeight_IsbL-1015_RLatLon0.09_PT006H.grib2 2026-04-28 08:40 411K
20260428T06Z_MSC_RDPS_Humidex_Sfc_RLatLon0.09_PT006H.grib2 2026-04-28 08:40 2.4M
20260428T06Z_MSC_RDPS_IcePellets-Accum1h_Sfc_RLatLon0.09_PT006H.grib2 2026-04-28 08:40 9.7K
20260428T06Z_MSC_RDPS_IcePellets-Accum3h_Sfc_RLatLon0.09_PT006H.grib2 2026-04-28 08:40 11K
20260428T06Z_MSC_RDPS_IcePellets-Accum6h_Sfc_RLatLon0.09_PT006H.grib2 2026-04-28 08:40 12K
20260428T06Z_MSC_RDPS_IcePellets-Accum_Sfc_RLatLon0.09_PT006H.grib2 2026-04-28 08:40 12K
20260428T06Z_MSC_RDPS_KIndex_Sfc_RLatLon0.09_PT006H.grib2 2026-04-28 08:40 2.4M
20260428T06Z_MSC_RDPS_LatentHeatNetFlux_Sfc_RLatLon0.09_PT006H.grib2 2026-04-28 08:40 331K
20260428T06Z_MSC_RDPS_LiftedIndex-MU-VT_IsbL-0500_RLatLon0.09_PT006H.grib2 2026-04-28 08:40 2.4M
20260428T06Z_MSC_RDPS_NetLongwaveRadiationFlux-Accum_Sfc_RLatLon0.09_PT006H.grib2 2026-04-28 08:40 554K
20260428T06Z_MSC_RDPS_NetShortwaveRadiationFlux-Accum_Sfc_RLatLon0.09_PT006H.grib2 2026-04-28 08:40 268K
20260428T06Z_MSC_RDPS_PlanetaryBoundaryLayerHeight_Sfc_RLatLon0.09_PT006H.grib2 2026-04-28 08:40 1.1M
20260428T06Z_MSC_RDPS_Precip-Accum1h_Sfc_RLatLon0.09_PT006H.grib2 2026-04-28 08:40 1.2M
20260428T06Z_MSC_RDPS_Precip-Accum3h_Sfc_RLatLon0.09_PT006H.grib2 2026-04-28 08:40 1.3M
20260428T06Z_MSC_RDPS_Precip-Accum6h_Sfc_RLatLon0.09_PT006H.grib2 2026-04-28 08:40 1.3M
20260428T06Z_MSC_RDPS_Precip-Accum_Sfc_RLatLon0.09_PT006H.grib2 2026-04-28 08:40 1.3M
20260428T06Z_MSC_RDPS_PrecipRate_Sfc_RLatLon0.09_PT006H.grib2 2026-04-28 08:40 177K
20260428T06Z_MSC_RDPS_PrecipType-Instant_Sfc_RLatLon0.09_PT006H.grib2 2026-04-28 08:40 557K
20260428T06Z_MSC_RDPS_Pressure-Trend3h_Sfc_RLatLon0.09_PT006H.grib2 2026-04-28 08:40 1.2M
20260428T06Z_MSC_RDPS_Pressure_MSL_RLatLon0.09_PT006H.grib2 2026-04-28 08:40 327K
20260428T06Z_MSC_RDPS_Pressure_PVU-1.5_RLatLon0.09_PT006H.grib2 2026-04-28 08:40 2.3M
20260428T06Z_MSC_RDPS_Pressure_PVU-1_RLatLon0.09_PT006H.grib2 2026-04-28 08:40 2.4M
20260428T06Z_MSC_RDPS_Pressure_PVU-2_RLatLon0.09_PT006H.grib2 2026-04-28 08:40 2.4M
20260428T06Z_MSC_RDPS_Pressure_Sfc_RLatLon0.09_PT006H.grib2 2026-04-28 08:40 502K
20260428T06Z_MSC_RDPS_RadiativeTemp_Sfc_RLatLon0.09_PT006H.grib2 2026-04-28 08:40 304K
20260428T06Z_MSC_RDPS_Rain-Accum1h_Sfc_RLatLon0.09_PT006H.grib2 2026-04-28 08:40 535K
20260428T06Z_MSC_RDPS_Rain-Accum3h_Sfc_RLatLon0.09_PT006H.grib2 2026-04-28 08:40 607K
20260428T06Z_MSC_RDPS_Rain-Accum6h_Sfc_RLatLon0.09_PT006H.grib2 2026-04-28 08:40 877K
20260428T06Z_MSC_RDPS_Rain-Accum_Sfc_RLatLon0.09_PT006H.grib2 2026-04-28 08:40 969K
20260428T06Z_MSC_RDPS_RelativeHumidity_AGL-2m_RLatLon0.09_PT006H.grib2 2026-04-28 08:40 1.0M
20260428T06Z_MSC_RDPS_RelativeHumidity_IsbL-0010_RLatLon0.09_PT006H.grib2 2026-04-28 08:40 628K
20260428T06Z_MSC_RDPS_RelativeHumidity_IsbL-0020_RLatLon0.09_PT006H.grib2 2026-04-28 08:40 653K
20260428T06Z_MSC_RDPS_RelativeHumidity_IsbL-0030_RLatLon0.09_PT006H.grib2 2026-04-28 08:40 606K
20260428T06Z_MSC_RDPS_RelativeHumidity_IsbL-0050_RLatLon0.09_PT006H.grib2 2026-04-28 08:40 319K
20260428T06Z_MSC_RDPS_RelativeHumidity_IsbL-0100_RLatLon0.09_PT006H.grib2 2026-04-28 08:40 277K
20260428T06Z_MSC_RDPS_RelativeHumidity_IsbL-0150_RLatLon0.09_PT006H.grib2 2026-04-28 08:40 412K
20260428T06Z_MSC_RDPS_RelativeHumidity_IsbL-0175_RLatLon0.09_PT006H.grib2 2026-04-28 08:40 489K
20260428T06Z_MSC_RDPS_RelativeHumidity_IsbL-0200_RLatLon0.09_PT006H.grib2 2026-04-28 08:40 555K
20260428T06Z_MSC_RDPS_RelativeHumidity_IsbL-0225_RLatLon0.09_PT006H.grib2 2026-04-28 08:40 618K
20260428T06Z_MSC_RDPS_RelativeHumidity_IsbL-0250_RLatLon0.09_PT006H.grib2 2026-04-28 08:40 685K
20260428T06Z_MSC_RDPS_RelativeHumidity_IsbL-0275_RLatLon0.09_PT006H.grib2 2026-04-28 08:40 715K
20260428T06Z_MSC_RDPS_RelativeHumidity_IsbL-0300_RLatLon0.09_PT006H.grib2 2026-04-28 08:40 762K
20260428T06Z_MSC_RDPS_RelativeHumidity_IsbL-0350_RLatLon0.09_PT006H.grib2 2026-04-28 08:40 783K
20260428T06Z_MSC_RDPS_RelativeHumidity_IsbL-0400_RLatLon0.09_PT006H.grib2 2026-04-28 08:40 799K
20260428T06Z_MSC_RDPS_RelativeHumidity_IsbL-0450_RLatLon0.09_PT006H.grib2 2026-04-28 08:40 804K
20260428T06Z_MSC_RDPS_RelativeHumidity_IsbL-0500_RLatLon0.09_PT006H.grib2 2026-04-28 08:40 818K
20260428T06Z_MSC_RDPS_RelativeHumidity_IsbL-0550_RLatLon0.09_PT006H.grib2 2026-04-28 08:40 833K
20260428T06Z_MSC_RDPS_RelativeHumidity_IsbL-0600_RLatLon0.09_PT006H.grib2 2026-04-28 08:40 848K
20260428T06Z_MSC_RDPS_RelativeHumidity_IsbL-0650_RLatLon0.09_PT006H.grib2 2026-04-28 08:40 858K
20260428T06Z_MSC_RDPS_RelativeHumidity_IsbL-0700_RLatLon0.09_PT006H.grib2 2026-04-28 08:40 879K
20260428T06Z_MSC_RDPS_RelativeHumidity_IsbL-0750_RLatLon0.09_PT006H.grib2 2026-04-28 08:40 922K
20260428T06Z_MSC_RDPS_RelativeHumidity_IsbL-0800_RLatLon0.09_PT006H.grib2 2026-04-28 08:40 1.0M
20260428T06Z_MSC_RDPS_RelativeHumidity_IsbL-0850_RLatLon0.09_PT006H.grib2 2026-04-28 08:40 1.0M
20260428T06Z_MSC_RDPS_RelativeHumidity_IsbL-0875_RLatLon0.09_PT006H.grib2 2026-04-28 08:40 1.1M
20260428T06Z_MSC_RDPS_RelativeHumidity_IsbL-0900_RLatLon0.09_PT006H.grib2 2026-04-28 08:40 1.1M
20260428T06Z_MSC_RDPS_RelativeHumidity_IsbL-0925_RLatLon0.09_PT006H.grib2 2026-04-28 08:40 1.1M
20260428T06Z_MSC_RDPS_RelativeHumidity_IsbL-0950_RLatLon0.09_PT006H.grib2 2026-04-28 08:40 1.1M
20260428T06Z_MSC_RDPS_RelativeHumidity_IsbL-0970_RLatLon0.09_PT006H.grib2 2026-04-28 08:40 1.1M
20260428T06Z_MSC_RDPS_RelativeHumidity_IsbL-0985_RLatLon0.09_PT006H.grib2 2026-04-28 08:40 1.0M
20260428T06Z_MSC_RDPS_RelativeHumidity_IsbL-1000_RLatLon0.09_PT006H.grib2 2026-04-28 08:40 1.0M
20260428T06Z_MSC_RDPS_RelativeHumidity_IsbL-1015_RLatLon0.09_PT006H.grib2 2026-04-28 08:40 1.0M
20260428T06Z_MSC_RDPS_Runoff-Accum_Sfc_RLatLon0.09_PT006H.grib2 2026-04-28 08:40 25K
20260428T06Z_MSC_RDPS_SWEATIndex_Sfc_RLatLon0.09_PT006H.grib2 2026-04-28 08:40 2.4M
20260428T06Z_MSC_RDPS_SeeingIndex_EAtm_RLatLon0.09_PT006H.grib2 2026-04-28 08:40 1.0M
20260428T06Z_MSC_RDPS_SensibleHeatNetFlux_Sfc_RLatLon0.09_PT006H.grib2 2026-04-28 08:40 311K
20260428T06Z_MSC_RDPS_ShowalterIndex_IsbL-0500_RLatLon0.09_PT006H.grib2 2026-04-28 08:40 2.6M
20260428T06Z_MSC_RDPS_SkyTransparencyIndex_EAtm_RLatLon0.09_PT006H.grib2 2026-04-28 08:40 717K
20260428T06Z_MSC_RDPS_Snow-Accum1h_Sfc_RLatLon0.09_PT006H.grib2 2026-04-28 08:40 447K
20260428T06Z_MSC_RDPS_Snow-Accum3h_Sfc_RLatLon0.09_PT006H.grib2 2026-04-28 08:40 400K
20260428T06Z_MSC_RDPS_Snow-Accum6h_Sfc_RLatLon0.09_PT006H.grib2 2026-04-28 08:40 528K
20260428T06Z_MSC_RDPS_Snow-Accum_Sfc_RLatLon0.09_PT006H.grib2 2026-04-28 08:40 614K
20260428T06Z_MSC_RDPS_SnowDensity_Sfc_RLatLon0.09_PT006H.grib2 2026-04-28 08:40 176K
20260428T06Z_MSC_RDPS_SnowDepth_Sfc_RLatLon0.09_PT006H.grib2 2026-04-28 08:40 700K
20260428T06Z_MSC_RDPS_SoilTemp_DBS-0to10cm_RLatLon0.09_PT006H.grib2 2026-04-28 08:40 198K
20260428T06Z_MSC_RDPS_SoilTemp_Sfc_RLatLon0.09_PT006H.grib2 2026-04-28 08:40 269K
20260428T06Z_MSC_RDPS_SoilVolumetricIceContent_Sfc_RLatLon0.09_PT006H.grib2 2026-04-28 08:40 170K
20260428T06Z_MSC_RDPS_SoilVolumetricWaterContent_DBS-0to10cm_RLatLon0.09_PT006H.grib2 2026-04-28 08:40 261K
20260428T06Z_MSC_RDPS_SoilVolumetricWaterContent_DBS-0to1cm_RLatLon0.09_PT006H.grib2 2026-04-28 08:40 332K
20260428T06Z_MSC_RDPS_SpecificHumidity_AGL-120m_RLatLon0.09_PT006H.grib2 2026-04-28 08:40 482K
20260428T06Z_MSC_RDPS_SpecificHumidity_AGL-2m_RLatLon0.09_PT006H.grib2 2026-04-28 08:40 651K
20260428T06Z_MSC_RDPS_SpecificHumidity_AGL-40m_RLatLon0.09_PT006H.grib2 2026-04-28 08:40 489K
20260428T06Z_MSC_RDPS_SpecificHumidity_AGL-80m_RLatLon0.09_PT006H.grib2 2026-04-28 08:40 485K
20260428T06Z_MSC_RDPS_SpecificHumidity_IsbL-0001_RLatLon0.09_PT006H.grib2 2026-04-28 08:40 333K
20260428T06Z_MSC_RDPS_SpecificHumidity_IsbL-0005_RLatLon0.09_PT006H.grib2 2026-04-28 08:40 357K
20260428T06Z_MSC_RDPS_SpecificHumidity_IsbL-0010_RLatLon0.09_PT006H.grib2 2026-04-28 08:40 394K
20260428T06Z_MSC_RDPS_SpecificHumidity_IsbL-0020_RLatLon0.09_PT006H.grib2 2026-04-28 08:40 386K
20260428T06Z_MSC_RDPS_SpecificHumidity_IsbL-0030_RLatLon0.09_PT006H.grib2 2026-04-28 08:40 368K
20260428T06Z_MSC_RDPS_SpecificHumidity_IsbL-0050_RLatLon0.09_PT006H.grib2 2026-04-28 08:40 465K
20260428T06Z_MSC_RDPS_SpecificHumidity_IsbL-0100_RLatLon0.09_PT006H.grib2 2026-04-28 08:40 419K
20260428T06Z_MSC_RDPS_SpecificHumidity_IsbL-0150_RLatLon0.09_PT006H.grib2 2026-04-28 08:40 376K
20260428T06Z_MSC_RDPS_SpecificHumidity_IsbL-0175_RLatLon0.09_PT006H.grib2 2026-04-28 08:40 464K
20260428T06Z_MSC_RDPS_SpecificHumidity_IsbL-0200_RLatLon0.09_PT006H.grib2 2026-04-28 08:40 455K
20260428T06Z_MSC_RDPS_SpecificHumidity_IsbL-0225_RLatLon0.09_PT006H.grib2 2026-04-28 08:40 558K
20260428T06Z_MSC_RDPS_SpecificHumidity_IsbL-0250_RLatLon0.09_PT006H.grib2 2026-04-28 08:40 552K
20260428T06Z_MSC_RDPS_SpecificHumidity_IsbL-0275_RLatLon0.09_PT006H.grib2 2026-04-28 08:40 469K
20260428T06Z_MSC_RDPS_SpecificHumidity_IsbL-0300_RLatLon0.09_PT006H.grib2 2026-04-28 08:40 545K
20260428T06Z_MSC_RDPS_SpecificHumidity_IsbL-0350_RLatLon0.09_PT006H.grib2 2026-04-28 08:40 539K
20260428T06Z_MSC_RDPS_SpecificHumidity_IsbL-0400_RLatLon0.09_PT006H.grib2 2026-04-28 08:40 522K
20260428T06Z_MSC_RDPS_SpecificHumidity_IsbL-0450_RLatLon0.09_PT006H.grib2 2026-04-28 08:40 574K
20260428T06Z_MSC_RDPS_SpecificHumidity_IsbL-0500_RLatLon0.09_PT006H.grib2 2026-04-28 08:40 509K
20260428T06Z_MSC_RDPS_SpecificHumidity_IsbL-0550_RLatLon0.09_PT006H.grib2 2026-04-28 08:40 562K
20260428T06Z_MSC_RDPS_SpecificHumidity_IsbL-0600_RLatLon0.09_PT006H.grib2 2026-04-28 08:40 627K
20260428T06Z_MSC_RDPS_SpecificHumidity_IsbL-0650_RLatLon0.09_PT006H.grib2 2026-04-28 08:40 540K
20260428T06Z_MSC_RDPS_SpecificHumidity_IsbL-0700_RLatLon0.09_PT006H.grib2 2026-04-28 08:40 583K
20260428T06Z_MSC_RDPS_SpecificHumidity_IsbL-0750_RLatLon0.09_PT006H.grib2 2026-04-28 08:40 637K
20260428T06Z_MSC_RDPS_SpecificHumidity_IsbL-0800_RLatLon0.09_PT006H.grib2 2026-04-28 08:40 717K
20260428T06Z_MSC_RDPS_SpecificHumidity_IsbL-0850_RLatLon0.09_PT006H.grib2 2026-04-28 08:40 791K
20260428T06Z_MSC_RDPS_SpecificHumidity_IsbL-0875_RLatLon0.09_PT006H.grib2 2026-04-28 08:40 817K
20260428T06Z_MSC_RDPS_SpecificHumidity_IsbL-0900_RLatLon0.09_PT006H.grib2 2026-04-28 08:40 826K
20260428T06Z_MSC_RDPS_SpecificHumidity_IsbL-0925_RLatLon0.09_PT006H.grib2 2026-04-28 08:40 827K
20260428T06Z_MSC_RDPS_SpecificHumidity_IsbL-0950_RLatLon0.09_PT006H.grib2 2026-04-28 08:40 827K
20260428T06Z_MSC_RDPS_SpecificHumidity_IsbL-0970_RLatLon0.09_PT006H.grib2 2026-04-28 08:40 822K
20260428T06Z_MSC_RDPS_SpecificHumidity_IsbL-0985_RLatLon0.09_PT006H.grib2 2026-04-28 08:40 674K
20260428T06Z_MSC_RDPS_SpecificHumidity_IsbL-1000_RLatLon0.09_PT006H.grib2 2026-04-28 08:40 670K
20260428T06Z_MSC_RDPS_SpecificHumidity_IsbL-1015_RLatLon0.09_PT006H.grib2 2026-04-28 08:40 663K
20260428T06Z_MSC_RDPS_SpecificHumidity_Sfc_RLatLon0.09_PT006H.grib2 2026-04-28 08:40 291K
20260428T06Z_MSC_RDPS_StormRelativeHelicity_EtaL-10000_RLatLon0.09_PT006H.grib2 2026-04-28 08:40 1.1M
20260428T06Z_MSC_RDPS_StormSeverityIndex_EtaL-10000_RLatLon0.09_PT006H.grib2 2026-04-28 08:40 1.2M
20260428T06Z_MSC_RDPS_Thickness_IsbL-0850to0700_RLatLon0.09_PT006H.grib2 2026-04-28 08:40 176K
20260428T06Z_MSC_RDPS_Thickness_IsbL-1000to0500_RLatLon0.09_PT006H.grib2 2026-04-28 08:40 199K
20260428T06Z_MSC_RDPS_Thickness_IsbL-1000to0850_RLatLon0.09_PT006H.grib2 2026-04-28 08:40 261K
20260428T06Z_MSC_RDPS_TotalCloudCover_Sfc_RLatLon0.09_PT006H.grib2 2026-04-28 08:40 669K
20260428T06Z_MSC_RDPS_TotalTotalsIndex_Sfc_RLatLon0.09_PT006H.grib2 2026-04-28 08:40 2.4M
20260428T06Z_MSC_RDPS_UVIndex-ClearSky_Sfc_RLatLon0.09_PT006H.grib2 2026-04-28 08:40 139K
20260428T06Z_MSC_RDPS_UVIndex_Sfc_RLatLon0.09_PT006H.grib2 2026-04-28 08:40 331K
20260428T06Z_MSC_RDPS_UpwardLongwaveRadiationFlux_NTAtm_RLatLon0.09_PT006H.grib2 2026-04-28 08:40 491K
20260428T06Z_MSC_RDPS_UpwardShortwaveRadiationFlux_NTAtm_RLatLon0.09_PT006H.grib2 2026-04-28 08:40 298K
20260428T06Z_MSC_RDPS_VerticalVelocity_IsbL-0250_RLatLon0.09_PT006H.grib2 2026-04-28 08:40 586K
20260428T06Z_MSC_RDPS_VerticalVelocity_IsbL-0500_RLatLon0.09_PT006H.grib2 2026-04-28 08:40 548K
20260428T06Z_MSC_RDPS_VerticalVelocity_IsbL-0700_RLatLon0.09_PT006H.grib2 2026-04-28 08:40 593K
20260428T06Z_MSC_RDPS_VerticalVelocity_IsbL-0850_RLatLon0.09_PT006H.grib2 2026-04-28 08:40 694K
20260428T06Z_MSC_RDPS_VerticalWindShear_EtaL-6500_RLatLon0.09_PT006H.grib2 2026-04-28 08:40 1.2M
20260428T06Z_MSC_RDPS_WindChill_Sfc_RLatLon0.09_PT006H.grib2 2026-04-28 08:40 1.2M
20260428T06Z_MSC_RDPS_WindDir_AGL-10m_RLatLon0.09_PT006H.grib2 2026-04-28 08:40 1.0M
20260428T06Z_MSC_RDPS_WindDir_AGL-120m_RLatLon0.09_PT006H.grib2 2026-04-28 08:40 610K
20260428T06Z_MSC_RDPS_WindDir_AGL-40m_RLatLon0.09_PT006H.grib2 2026-04-28 08:40 645K
20260428T06Z_MSC_RDPS_WindDir_AGL-80m_RLatLon0.09_PT006H.grib2 2026-04-28 08:40 623K
20260428T06Z_MSC_RDPS_WindDir_IsbL-0001_RLatLon0.09_PT006H.grib2 2026-04-28 08:40 321K
20260428T06Z_MSC_RDPS_WindDir_IsbL-0005_RLatLon0.09_PT006H.grib2 2026-04-28 08:40 354K
20260428T06Z_MSC_RDPS_WindDir_IsbL-0010_RLatLon0.09_PT006H.grib2 2026-04-28 08:40 359K
20260428T06Z_MSC_RDPS_WindDir_IsbL-0020_RLatLon0.09_PT006H.grib2 2026-04-28 08:40 392K
20260428T06Z_MSC_RDPS_WindDir_IsbL-0030_RLatLon0.09_PT006H.grib2 2026-04-28 08:40 401K
20260428T06Z_MSC_RDPS_WindDir_IsbL-0050_RLatLon0.09_PT006H.grib2 2026-04-28 08:40 418K
20260428T06Z_MSC_RDPS_WindDir_IsbL-0100_RLatLon0.09_PT006H.grib2 2026-04-28 08:40 411K
20260428T06Z_MSC_RDPS_WindDir_IsbL-0150_RLatLon0.09_PT006H.grib2 2026-04-28 08:40 413K
20260428T06Z_MSC_RDPS_WindDir_IsbL-0175_RLatLon0.09_PT006H.grib2 2026-04-28 08:40 431K
20260428T06Z_MSC_RDPS_WindDir_IsbL-0200_RLatLon0.09_PT006H.grib2 2026-04-28 08:40 438K
20260428T06Z_MSC_RDPS_WindDir_IsbL-0225_RLatLon0.09_PT006H.grib2 2026-04-28 08:40 442K
20260428T06Z_MSC_RDPS_WindDir_IsbL-0250_RLatLon0.09_PT006H.grib2 2026-04-28 08:40 448K
20260428T06Z_MSC_RDPS_WindDir_IsbL-0275_RLatLon0.09_PT006H.grib2 2026-04-28 08:40 470K
20260428T06Z_MSC_RDPS_WindDir_IsbL-0300_RLatLon0.09_PT006H.grib2 2026-04-28 08:40 471K
20260428T06Z_MSC_RDPS_WindDir_IsbL-0350_RLatLon0.09_PT006H.grib2 2026-04-28 08:40 490K
20260428T06Z_MSC_RDPS_WindDir_IsbL-0400_RLatLon0.09_PT006H.grib2 2026-04-28 08:40 520K
20260428T06Z_MSC_RDPS_WindDir_IsbL-0450_RLatLon0.09_PT006H.grib2 2026-04-28 08:40 535K
20260428T06Z_MSC_RDPS_WindDir_IsbL-0500_RLatLon0.09_PT006H.grib2 2026-04-28 08:40 547K
20260428T06Z_MSC_RDPS_WindDir_IsbL-0550_RLatLon0.09_PT006H.grib2 2026-04-28 08:40 556K
20260428T06Z_MSC_RDPS_WindDir_IsbL-0600_RLatLon0.09_PT006H.grib2 2026-04-28 08:40 584K
20260428T06Z_MSC_RDPS_WindDir_IsbL-0650_RLatLon0.09_PT006H.grib2 2026-04-28 08:40 625K
20260428T06Z_MSC_RDPS_WindDir_IsbL-0700_RLatLon0.09_PT006H.grib2 2026-04-28 08:40 660K
20260428T06Z_MSC_RDPS_WindDir_IsbL-0750_RLatLon0.09_PT006H.grib2 2026-04-28 08:40 705K
20260428T06Z_MSC_RDPS_WindDir_IsbL-0800_RLatLon0.09_PT006H.grib2 2026-04-28 08:40 774K
20260428T06Z_MSC_RDPS_WindDir_IsbL-0850_RLatLon0.09_PT006H.grib2 2026-04-28 08:40 854K
20260428T06Z_MSC_RDPS_WindDir_IsbL-0875_RLatLon0.09_PT006H.grib2 2026-04-28 08:40 883K
20260428T06Z_MSC_RDPS_WindDir_IsbL-0900_RLatLon0.09_PT006H.grib2 2026-04-28 08:40 900K
20260428T06Z_MSC_RDPS_WindDir_IsbL-0925_RLatLon0.09_PT006H.grib2 2026-04-28 08:40 911K
20260428T06Z_MSC_RDPS_WindDir_IsbL-0950_RLatLon0.09_PT006H.grib2 2026-04-28 08:40 912K
20260428T06Z_MSC_RDPS_WindDir_IsbL-0970_RLatLon0.09_PT006H.grib2 2026-04-28 08:40 924K
20260428T06Z_MSC_RDPS_WindDir_IsbL-0985_RLatLon0.09_PT006H.grib2 2026-04-28 08:40 934K
20260428T06Z_MSC_RDPS_WindDir_IsbL-1000_RLatLon0.09_PT006H.grib2 2026-04-28 08:40 949K
20260428T06Z_MSC_RDPS_WindDir_IsbL-1015_RLatLon0.09_PT006H.grib2 2026-04-28 08:40 970K
20260428T06Z_MSC_RDPS_WindGust-Max_AGL-10m_RLatLon0.09_PT006H.grib2 2026-04-28 08:40 1.0M
20260428T06Z_MSC_RDPS_WindGust-Min_AGL-10m_RLatLon0.09_PT006H.grib2 2026-04-28 08:40 1.0M
20260428T06Z_MSC_RDPS_WindGust_AGL-10m_RLatLon0.09_PT006H.grib2 2026-04-28 08:40 1.0M
20260428T06Z_MSC_RDPS_WindSpeed_AGL-10m_RLatLon0.09_PT006H.grib2 2026-04-28 08:40 849K
20260428T06Z_MSC_RDPS_WindSpeed_AGL-120m_RLatLon0.09_PT006H.grib2 2026-04-28 08:40 546K
20260428T06Z_MSC_RDPS_WindSpeed_AGL-40m_RLatLon0.09_PT006H.grib2 2026-04-28 08:40 550K
20260428T06Z_MSC_RDPS_WindSpeed_AGL-80m_RLatLon0.09_PT006H.grib2 2026-04-28 08:40 547K
20260428T06Z_MSC_RDPS_WindSpeed_IsbL-0001_RLatLon0.09_PT006H.grib2 2026-04-28 08:40 251K
20260428T06Z_MSC_RDPS_WindSpeed_IsbL-0005_RLatLon0.09_PT006H.grib2 2026-04-28 08:40 292K
20260428T06Z_MSC_RDPS_WindSpeed_IsbL-0010_RLatLon0.09_PT006H.grib2 2026-04-28 08:40 300K
20260428T06Z_MSC_RDPS_WindSpeed_IsbL-0020_RLatLon0.09_PT006H.grib2 2026-04-28 08:40 317K
20260428T06Z_MSC_RDPS_WindSpeed_IsbL-0030_RLatLon0.09_PT006H.grib2 2026-04-28 08:40 313K
20260428T06Z_MSC_RDPS_WindSpeed_IsbL-0050_RLatLon0.09_PT006H.grib2 2026-04-28 08:40 346K
20260428T06Z_MSC_RDPS_WindSpeed_IsbL-0100_RLatLon0.09_PT006H.grib2 2026-04-28 08:40 441K
20260428T06Z_MSC_RDPS_WindSpeed_IsbL-0150_RLatLon0.09_PT006H.grib2 2026-04-28 08:40 389K
20260428T06Z_MSC_RDPS_WindSpeed_IsbL-0175_RLatLon0.09_PT006H.grib2 2026-04-28 08:40 438K
20260428T06Z_MSC_RDPS_WindSpeed_IsbL-0200_RLatLon0.09_PT006H.grib2 2026-04-28 08:40 449K
20260428T06Z_MSC_RDPS_WindSpeed_IsbL-0225_RLatLon0.09_PT006H.grib2 2026-04-28 08:40 455K
20260428T06Z_MSC_RDPS_WindSpeed_IsbL-0250_RLatLon0.09_PT006H.grib2 2026-04-28 08:40 461K
20260428T06Z_MSC_RDPS_WindSpeed_IsbL-0275_RLatLon0.09_PT006H.grib2 2026-04-28 08:40 478K
20260428T06Z_MSC_RDPS_WindSpeed_IsbL-0300_RLatLon0.09_PT006H.grib2 2026-04-28 08:40 457K
20260428T06Z_MSC_RDPS_WindSpeed_IsbL-0350_RLatLon0.09_PT006H.grib2 2026-04-28 08:40 467K
20260428T06Z_MSC_RDPS_WindSpeed_IsbL-0400_RLatLon0.09_PT006H.grib2 2026-04-28 08:40 471K
20260428T06Z_MSC_RDPS_WindSpeed_IsbL-0450_RLatLon0.09_PT006H.grib2 2026-04-28 08:40 587K
20260428T06Z_MSC_RDPS_WindSpeed_IsbL-0500_RLatLon0.09_PT006H.grib2 2026-04-28 08:40 583K
20260428T06Z_MSC_RDPS_WindSpeed_IsbL-0550_RLatLon0.09_PT006H.grib2 2026-04-28 08:40 582K
20260428T06Z_MSC_RDPS_WindSpeed_IsbL-0600_RLatLon0.09_PT006H.grib2 2026-04-28 08:40 592K
20260428T06Z_MSC_RDPS_WindSpeed_IsbL-0650_RLatLon0.09_PT006H.grib2 2026-04-28 08:40 611K
20260428T06Z_MSC_RDPS_WindSpeed_IsbL-0700_RLatLon0.09_PT006H.grib2 2026-04-28 08:40 675K
20260428T06Z_MSC_RDPS_WindSpeed_IsbL-0750_RLatLon0.09_PT006H.grib2 2026-04-28 08:40 702K
20260428T06Z_MSC_RDPS_WindSpeed_IsbL-0800_RLatLon0.09_PT006H.grib2 2026-04-28 08:40 751K
20260428T06Z_MSC_RDPS_WindSpeed_IsbL-0850_RLatLon0.09_PT006H.grib2 2026-04-28 08:40 810K
20260428T06Z_MSC_RDPS_WindSpeed_IsbL-0875_RLatLon0.09_PT006H.grib2 2026-04-28 08:40 833K
20260428T06Z_MSC_RDPS_WindSpeed_IsbL-0900_RLatLon0.09_PT006H.grib2 2026-04-28 08:40 848K
20260428T06Z_MSC_RDPS_WindSpeed_IsbL-0925_RLatLon0.09_PT006H.grib2 2026-04-28 08:40 859K
20260428T06Z_MSC_RDPS_WindSpeed_IsbL-0950_RLatLon0.09_PT006H.grib2 2026-04-28 08:40 861K
20260428T06Z_MSC_RDPS_WindSpeed_IsbL-0970_RLatLon0.09_PT006H.grib2 2026-04-28 08:40 865K
20260428T06Z_MSC_RDPS_WindSpeed_IsbL-0985_RLatLon0.09_PT006H.grib2 2026-04-28 08:40 859K
20260428T06Z_MSC_RDPS_WindSpeed_IsbL-1000_RLatLon0.09_PT006H.grib2 2026-04-28 08:40 856K
20260428T06Z_MSC_RDPS_WindSpeed_IsbL-1015_RLatLon0.09_PT006H.grib2 2026-04-28 08:40 848K
20260428T06Z_MSC_RDPS_WindU_AGL-10m_RLatLon0.09_PT006H.grib2 2026-04-28 08:40 436K
20260428T06Z_MSC_RDPS_WindU_AGL-120m_RLatLon0.09_PT006H.grib2 2026-04-28 08:40 423K
20260428T06Z_MSC_RDPS_WindU_AGL-40m_RLatLon0.09_PT006H.grib2 2026-04-28 08:40 545K
20260428T06Z_MSC_RDPS_WindU_AGL-80m_RLatLon0.09_PT006H.grib2 2026-04-28 08:40 425K
20260428T06Z_MSC_RDPS_WindU_IsbL-0001_RLatLon0.09_PT006H.grib2 2026-04-28 08:40 292K
20260428T06Z_MSC_RDPS_WindU_IsbL-0005_RLatLon0.09_PT006H.grib2 2026-04-28 08:40 329K
20260428T06Z_MSC_RDPS_WindU_IsbL-0010_RLatLon0.09_PT006H.grib2 2026-04-28 08:40 291K
20260428T06Z_MSC_RDPS_WindU_IsbL-0020_RLatLon0.09_PT006H.grib2 2026-04-28 08:40 347K
20260428T06Z_MSC_RDPS_WindU_IsbL-0030_RLatLon0.09_PT006H.grib2 2026-04-28 08:40 346K
20260428T06Z_MSC_RDPS_WindU_IsbL-0050_RLatLon0.09_PT006H.grib2 2026-04-28 08:40 373K
20260428T06Z_MSC_RDPS_WindU_IsbL-0100_RLatLon0.09_PT006H.grib2 2026-04-28 08:40 337K
20260428T06Z_MSC_RDPS_WindU_IsbL-0150_RLatLon0.09_PT006H.grib2 2026-04-28 08:40 405K
20260428T06Z_MSC_RDPS_WindU_IsbL-0175_RLatLon0.09_PT006H.grib2 2026-04-28 08:40 335K
20260428T06Z_MSC_RDPS_WindU_IsbL-0200_RLatLon0.09_PT006H.grib2 2026-04-28 08:40 342K
20260428T06Z_MSC_RDPS_WindU_IsbL-0225_RLatLon0.09_PT006H.grib2 2026-04-28 08:40 347K
20260428T06Z_MSC_RDPS_WindU_IsbL-0250_RLatLon0.09_PT006H.grib2 2026-04-28 08:40 350K
20260428T06Z_MSC_RDPS_WindU_IsbL-0275_RLatLon0.09_PT006H.grib2 2026-04-28 08:40 467K
20260428T06Z_MSC_RDPS_WindU_IsbL-0300_RLatLon0.09_PT006H.grib2 2026-04-28 08:40 462K
20260428T06Z_MSC_RDPS_WindU_IsbL-0350_RLatLon0.09_PT006H.grib2 2026-04-28 08:40 470K
20260428T06Z_MSC_RDPS_WindU_IsbL-0400_RLatLon0.09_PT006H.grib2 2026-04-28 08:40 474K
20260428T06Z_MSC_RDPS_WindU_IsbL-0450_RLatLon0.09_PT006H.grib2 2026-04-28 08:40 471K
20260428T06Z_MSC_RDPS_WindU_IsbL-0500_RLatLon0.09_PT006H.grib2 2026-04-28 08:40 471K
20260428T06Z_MSC_RDPS_WindU_IsbL-0550_RLatLon0.09_PT006H.grib2 2026-04-28 08:40 471K
20260428T06Z_MSC_RDPS_WindU_IsbL-0600_RLatLon0.09_PT006H.grib2 2026-04-28 08:40 463K
20260428T06Z_MSC_RDPS_WindU_IsbL-0650_RLatLon0.09_PT006H.grib2 2026-04-28 08:40 480K
20260428T06Z_MSC_RDPS_WindU_IsbL-0700_RLatLon0.09_PT006H.grib2 2026-04-28 08:40 499K
20260428T06Z_MSC_RDPS_WindU_IsbL-0750_RLatLon0.09_PT006H.grib2 2026-04-28 08:40 524K
20260428T06Z_MSC_RDPS_WindU_IsbL-0800_RLatLon0.09_PT006H.grib2 2026-04-28 08:40 568K
20260428T06Z_MSC_RDPS_WindU_IsbL-0850_RLatLon0.09_PT006H.grib2 2026-04-28 08:40 631K
20260428T06Z_MSC_RDPS_WindU_IsbL-0875_RLatLon0.09_PT006H.grib2 2026-04-28 08:40 648K
20260428T06Z_MSC_RDPS_WindU_IsbL-0900_RLatLon0.09_PT006H.grib2 2026-04-28 08:40 658K
20260428T06Z_MSC_RDPS_WindU_IsbL-0925_RLatLon0.09_PT006H.grib2 2026-04-28 08:40 664K
20260428T06Z_MSC_RDPS_WindU_IsbL-0950_RLatLon0.09_PT006H.grib2 2026-04-28 08:40 656K
20260428T06Z_MSC_RDPS_WindU_IsbL-0970_RLatLon0.09_PT006H.grib2 2026-04-28 08:40 657K
20260428T06Z_MSC_RDPS_WindU_IsbL-0985_RLatLon0.09_PT006H.grib2 2026-04-28 08:40 655K
20260428T06Z_MSC_RDPS_WindU_IsbL-1000_RLatLon0.09_PT006H.grib2 2026-04-28 08:40 653K
20260428T06Z_MSC_RDPS_WindU_IsbL-1015_RLatLon0.09_PT006H.grib2 2026-04-28 08:40 787K
20260428T06Z_MSC_RDPS_WindV_AGL-10m_RLatLon0.09_PT006H.grib2 2026-04-28 08:40 435K
20260428T06Z_MSC_RDPS_WindV_AGL-120m_RLatLon0.09_PT006H.grib2 2026-04-28 08:40 538K
20260428T06Z_MSC_RDPS_WindV_AGL-40m_RLatLon0.09_PT006H.grib2 2026-04-28 08:40 542K
20260428T06Z_MSC_RDPS_WindV_AGL-80m_RLatLon0.09_PT006H.grib2 2026-04-28 08:40 540K
20260428T06Z_MSC_RDPS_WindV_IsbL-0001_RLatLon0.09_PT006H.grib2 2026-04-28 08:40 266K
20260428T06Z_MSC_RDPS_WindV_IsbL-0005_RLatLon0.09_PT006H.grib2 2026-04-28 08:40 326K
20260428T06Z_MSC_RDPS_WindV_IsbL-0010_RLatLon0.09_PT006H.grib2 2026-04-28 08:40 291K
20260428T06Z_MSC_RDPS_WindV_IsbL-0020_RLatLon0.09_PT006H.grib2 2026-04-28 08:40 309K
20260428T06Z_MSC_RDPS_WindV_IsbL-0030_RLatLon0.09_PT006H.grib2 2026-04-28 08:40 308K
20260428T06Z_MSC_RDPS_WindV_IsbL-0050_RLatLon0.09_PT006H.grib2 2026-04-28 08:40 338K
20260428T06Z_MSC_RDPS_WindV_IsbL-0100_RLatLon0.09_PT006H.grib2 2026-04-28 08:40 333K
20260428T06Z_MSC_RDPS_WindV_IsbL-0150_RLatLon0.09_PT006H.grib2 2026-04-28 08:40 402K
20260428T06Z_MSC_RDPS_WindV_IsbL-0175_RLatLon0.09_PT006H.grib2 2026-04-28 08:40 429K
20260428T06Z_MSC_RDPS_WindV_IsbL-0200_RLatLon0.09_PT006H.grib2 2026-04-28 08:40 343K
20260428T06Z_MSC_RDPS_WindV_IsbL-0225_RLatLon0.09_PT006H.grib2 2026-04-28 08:40 345K
20260428T06Z_MSC_RDPS_WindV_IsbL-0250_RLatLon0.09_PT006H.grib2 2026-04-28 08:40 348K
20260428T06Z_MSC_RDPS_WindV_IsbL-0275_RLatLon0.09_PT006H.grib2 2026-04-28 08:40 363K
20260428T06Z_MSC_RDPS_WindV_IsbL-0300_RLatLon0.09_PT006H.grib2 2026-04-28 08:40 360K
20260428T06Z_MSC_RDPS_WindV_IsbL-0350_RLatLon0.09_PT006H.grib2 2026-04-28 08:40 366K
20260428T06Z_MSC_RDPS_WindV_IsbL-0400_RLatLon0.09_PT006H.grib2 2026-04-28 08:40 473K
20260428T06Z_MSC_RDPS_WindV_IsbL-0450_RLatLon0.09_PT006H.grib2 2026-04-28 08:40 471K
20260428T06Z_MSC_RDPS_WindV_IsbL-0500_RLatLon0.09_PT006H.grib2 2026-04-28 08:40 467K
20260428T06Z_MSC_RDPS_WindV_IsbL-0550_RLatLon0.09_PT006H.grib2 2026-04-28 08:40 467K
20260428T06Z_MSC_RDPS_WindV_IsbL-0600_RLatLon0.09_PT006H.grib2 2026-04-28 08:40 476K
20260428T06Z_MSC_RDPS_WindV_IsbL-0650_RLatLon0.09_PT006H.grib2 2026-04-28 08:40 494K
20260428T06Z_MSC_RDPS_WindV_IsbL-0700_RLatLon0.09_PT006H.grib2 2026-04-28 08:40 496K
20260428T06Z_MSC_RDPS_WindV_IsbL-0750_RLatLon0.09_PT006H.grib2 2026-04-28 08:40 521K
20260428T06Z_MSC_RDPS_WindV_IsbL-0800_RLatLon0.09_PT006H.grib2 2026-04-28 08:40 563K
20260428T06Z_MSC_RDPS_WindV_IsbL-0850_RLatLon0.09_PT006H.grib2 2026-04-28 08:40 615K
20260428T06Z_MSC_RDPS_WindV_IsbL-0875_RLatLon0.09_PT006H.grib2 2026-04-28 08:40 636K
20260428T06Z_MSC_RDPS_WindV_IsbL-0900_RLatLon0.09_PT006H.grib2 2026-04-28 08:40 649K
20260428T06Z_MSC_RDPS_WindV_IsbL-0925_RLatLon0.09_PT006H.grib2 2026-04-28 08:40 655K
20260428T06Z_MSC_RDPS_WindV_IsbL-0950_RLatLon0.09_PT006H.grib2 2026-04-28 08:40 656K
20260428T06Z_MSC_RDPS_WindV_IsbL-0970_RLatLon0.09_PT006H.grib2 2026-04-28 08:40 798K
20260428T06Z_MSC_RDPS_WindV_IsbL-0985_RLatLon0.09_PT006H.grib2 2026-04-28 08:40 794K
20260428T06Z_MSC_RDPS_WindV_IsbL-1000_RLatLon0.09_PT006H.grib2 2026-04-28 08:40 790K
20260428T06Z_MSC_RDPS_WindV_IsbL-1015_RLatLon0.09_PT006H.grib2 2026-04-28 08:40 831K